View from above orbital plane
|
View from above satellite
|
Ground track
|
The orbit data is extracted from the following two-line orbital elements,
1 39430U 13066Q 21017.16376109 .00000134 00000-0 33572-4 0 9991
2 39430 97.8085 308.9682 0149391 231.1719 127.6068 14.59521895380971
Epoch (UTC): | 17 January 2021 03:55:48 |
Eccentricity: | 0.0149391 |
inclination: | 97.8085° |
perigee height: | 589 km |
apogee height: | 800 km |
right ascension of ascending node: | 308.9682° |
argument of perigee: | 231.1719° |
revolutions per day: | 14.59521895 |
mean anomaly at epoch: | 127.6068° |
orbit number at epoch: | 38097 |
The dashed part of the orbit path shows where the satellite is in the earth's shadow,
|
|